Location: Newark
(34.0131°N, 4.3314°W)
Time: 18:20:46
(UTC+00:00)

Explorer 7 - Pass Details

Date: 22 October 2019
Orbit: 485 x 680 km, 50.3° (Epoch: 12 November)

Event Time Altitude Azimuth Distance (km) Brightness Sun altitude
Rises 10:04:45 0° 230° (SW) 2,596 10.3 37.1°
Reaches altitude 10° 10:06:58 10° 232° (SW) 1,693 9.4 37.3°
Maximum altitude 10:10:46 79° 318° (NW) 501 7.1 37.8°
Drops below altitude 10° 10:14:31 10° 46° (NE) 1,664 9.3 38.2°
Sets 10:16:41 0° 48° (NE) 2,547 10.2 38.5°
